Weather reports worldwide

Advertisment
Milford-Haven, United Kingdom (3604): temperature & dewpoint: 08.12.2019 04:00:00 - 14.12.2019 04:00:00 (GMT)Milford-Haven, United Kingdom (3604): temperature -20cm & temperature -100cm: 08.12.2019 04:00:00 - 14.12.2019 04:00:00 (GMT)Milford-Haven, United Kingdom (3604): wind speed & gusts: 08.12.2019 04:00:00 - 14.12.2019 04:00:00 (GMT)Milford-Haven, United Kingdom (3604): wind direction: 08.12.2019 04:00:00 - 14.12.2019 04:00:00 (GMT)Milford-Haven, United Kingdom (3604): reduced air pressure: 08.12.2019 04:00:00 - 14.12.2019 04:00:00 (GMT)Milford-Haven, United Kingdom (3604): visibility: 08.12.2019 04:00:00 - 14.12.2019 04:00:00 (GMT)Milford-Haven, United Kingdom (3604): precipitation: 08.12.2019 04:00:00 - 14.12.2019 04:00:00 (GMT)
Date & Time tt [°C] td [°C] tt -20cm [°C] tt -100cm [°C] ff [km/h] ff [kn] fx [km/h] fx [kn] dd ppp [hPa] vv [km] rr [mm]
14.12.2019 04:00:00 7,7 -0,4 - - 34 18 74 40 W 988,1 27 0,0
14.12.2019 03:00:00 7,7 0,7 - - 39 21 81 44 W 987,7 24 0,0
14.12.2019 02:00:00 6,9 0,2 - - 44 24 70 38 W 986,8 35 0,0
14.12.2019 01:00:00 6,7 2,0 - - 41 22 72 39 WNW 985,9 35 0,0
14.12.2019 00:00:00 7,0 3,9 - - 34 18 57 31 W 985,2 4,7 0,0
13.12.2019 23:00:00 7,1 4,7 - - 28 15 55 30 W 984,5 40 0,0
13.12.2019 22:00:00 6,1 4,8 - - 26 14 - - NW 983,3 45 0,4
13.12.2019 21:00:00 6,3 5,6 - - 28 15 - - NW 981,7 4,7 1,2
13.12.2019 20:00:00 6,7 6,1 - - 11 6 - - NW 980,9 4,1 1,2
13.12.2019 19:00:00 7,3 6,3 - - 15 8 - - W 981,7 7 0,6
13.12.2019 18:00:00 8,2 5,7 - - 21 11 - - WSW 982,3 19 0,0
13.12.2019 17:00:00 8,7 3,7 - - 28 15 46 25 W 983,9 21 0,0
13.12.2019 16:00:00 8,3 2,9 - - 21 11 52 28 W 985,3 23 0,0
13.12.2019 15:00:00 8,3 1,4 - - 31 17 54 29 W 985,5 29 0,0
13.12.2019 14:00:00 8,0 1,7 - - 34 18 65 35 W 986,2 25 0,0
13.12.2019 13:00:00 8,2 2,1 - - 37 20 65 35 W 986,4 25 0,0
13.12.2019 12:00:00 7,9 2,1 - - 31 17 57 31 W 986,7 20 0,0
13.12.2019 11:00:00 7,8 2,2 - - 28 15 61 33 WNW 986,5 24 0,0
13.12.2019 10:00:00 7,3 2,3 - - 34 18 57 31 WNW 985,8 21 0,0
13.12.2019 09:00:00 7,0 2,4 7,0 8,2 29 16 70 38 W 984,6 18 0,0
13.12.2019 08:00:00 7,1 1,5 - - 37 20 67 36 WNW 983,3 24 0,0
13.12.2019 07:00:00 7,1 1,7 - - 34 18 76 41 WNW 982,3 22 0,0
13.12.2019 06:00:00 7,1 0,8 - - 46 25 74 40 WNW 981,2 24 0,0
13.12.2019 05:00:00 7,4 1,6 - - 39 21 72 39 WNW 980,2 21 0,0
13.12.2019 04:00:00 7,4 2,1 - - 39 21 70 38 WNW 979,6 20 0,0
13.12.2019 03:00:00 7,3 2,9 - - 37 20 80 43 WNW 978,9 22 0,0
13.12.2019 02:00:00 7,3 2,8 - - 42 23 76 41 WNW 977,7 28 0,0
13.12.2019 01:00:00 7,3 3,2 - - 44 24 78 42 WNW 976,8 30 0,0
13.12.2019 00:00:00 7,3 3,3 - - 42 23 81 44 WNW 976,7 35 0,0
12.12.2019 23:00:00 7,5 3,7 - - 37 20 70 38 WNW 975,9 26 0,0
12.12.2019 22:00:00 7,5 5,3 - - 37 20 76 41 WNW 975,2 26 0,4
12.12.2019 21:00:00 8,6 5,9 - - 37 20 70 38 W 974,8 19 0,6
12.12.2019 20:00:00 9,6 8,0 - - 48 26 63 34 W 974,8 17 1,2
12.12.2019 19:00:00 9,8 8,5 - - 29 16 50 27 W 976,6 12 0,2
12.12.2019 18:00:00 10,0 7,7 - - 29 16 46 25 WSW 978,3 25 0,0
12.12.2019 17:00:00 9,7 7,2 - - 35 19 50 27 W 979,7 25 0,0
12.12.2019 16:00:00 9,5 6,7 - - 31 17 59 32 W 980,7 30 0,0
12.12.2019 15:00:00 9,7 7,6 - - 22 12 46 25 W 981,2 24 0,0
12.12.2019 14:00:00 9,5 7,9 - - 26 14 52 28 W 981,6 26 0,0
12.12.2019 13:00:00 9,1 7,7 - - 28 15 54 29 WNW 981,8 60 0,0
12.12.2019 12:00:00 9,3 8,5 - - 22 12 48 26 W 981,4 4,7 0,2
12.12.2019 11:00:00 9,5 8,9 - - 21 11 - - WSW 982,1 24 1,2
12.12.2019 10:00:00 9,6 8,9 - - 15 8 46 25 WSW 983,5 6 0,6
12.12.2019 09:00:00 10,2 9,9 6,7 8,5 22 12 - - SW 984,6 9 0,0
12.12.2019 08:00:00 10,1 9,8 - - 22 12 - - SW 985,9 7 0,4
12.12.2019 07:00:00 9,8 9,5 - - 22 12 46 25 SW 987,6 5 3,4
12.12.2019 06:00:00 8,9 8,4 - - 28 15 46 25 SSW 989,9 3,3 2,8
12.12.2019 05:00:00 8,6 8,3 - - 24 13 52 28 SSW 991,8 15 1,0
12.12.2019 04:00:00 7,7 6,8 - - 34 18 50 27 S 994,3 10 0,8
12.12.2019 03:00:00 7,4 6,4 - - 24 13 - - SW 996,8 11 1,0
12.12.2019 02:00:00 7,0 5,2 - - 26 14 - - SW 998,8 7 0,8
12.12.2019 01:00:00 6,4 4,3 - - 13 7 50 27 SW 1000,6 11 0,2
12.12.2019 00:00:00 7,2 2,3 - - 24 13 81 44 W 1001,8 35 0,0
11.12.2019 23:00:00 5,9 2,1 - - 24 13 - - W 1002,8 40 0,8
11.12.2019 22:00:00 6,4 1,9 - - 13 7 - - W 1003,4 35 0,0
11.12.2019 21:00:00 5,9 2,0 - - 15 8 - - W 1003,8 40 0,0
11.12.2019 20:00:00 5,9 1,7 - - 18 10 - - WNW 1003,8 40 0,0
11.12.2019 19:00:00 6,1 1,9 - - 21 11 - - WNW 1004,0 45 0,0
11.12.2019 18:00:00 6,1 2,4 - - 16 9 - - WNW 1003,7 45 0,0
11.12.2019 17:00:00 6,2 2,4 - - 21 11 - - WNW 1003,2 50 0,0
11.12.2019 16:00:00 6,1 2,2 - - 18 10 - - WNW 1002,4 55 0,0
11.12.2019 15:00:00 6,2 2,0 - - 24 13 - - WNW 1001,8 60 0,0
11.12.2019 14:00:00 6,8 2,4 - - 22 12 - - WNW 1001,2 65 0,0
11.12.2019 13:00:00 6,5 2,3 - - 21 11 - - WNW 1000,9 55 0,0
11.12.2019 12:00:00 6,2 3,0 - - 22 12 50 27 WNW 1000,9 60 0,0
11.12.2019 11:00:00 6,4 4,5 - - 29 16 52 28 W 1001,1 35 1,6
11.12.2019 10:00:00 5,4 4,1 - - 15 8 52 28 W 1001,9 35 1,8
11.12.2019 09:00:00 5,4 3,7 7,4 8,7 22 12 55 30 WSW 1002,4 1,6 1,6
11.12.2019 08:00:00 6,2 4,0 - - 34 18 57 31 W 1002,9 7 0,2
11.12.2019 07:00:00 7,4 4,2 - - 28 15 59 32 WSW 1003,3 35 0,4
11.12.2019 06:00:00 8,2 4,3 - - 22 12 46 25 SW 1004,2 29 0,0
11.12.2019 05:00:00 7,8 3,6 - - 24 13 - - WSW 1005,2 40 0,0
11.12.2019 04:00:00 6,9 4,7 - - 35 19 63 34 W 1006,3 5 0,2
11.12.2019 03:00:00 7,4 4,7 - - 22 12 50 27 W 1007,0 28 0,4
11.12.2019 02:00:00 8,4 3,4 - - 28 15 46 25 W 1007,5 29 0,0
11.12.2019 01:00:00 8,2 2,5 - - 29 16 46 25 W 1007,9 30 0,0
11.12.2019 00:00:00 8,3 2,8 - - 28 15 - - W 1008,1 30 0,0
10.12.2019 23:00:00 7,7 2,9 - - 24 13 46 25 W 1007,7 30 0,0
10.12.2019 22:00:00 7,5 2,9 - - 26 14 54 29 W 1007,3 28 0,0
10.12.2019 21:00:00 8,2 3,2 - - 31 17 50 27 W 1006,3 28 0,0
10.12.2019 20:00:00 7,9 2,7 - - 28 15 55 30 W 1005,8 23 0,0
10.12.2019 19:00:00 8,1 3,8 - - 28 15 50 27 W 1005,0 26 0,0
10.12.2019 18:00:00 7,9 5,7 - - 29 16 65 35 WNW 1003,6 6 0,0
10.12.2019 17:00:00 8,8 6,5 - - 35 19 54 29 W 1001,8 26 0,2
10.12.2019 16:00:00 8,9 8,0 - - 35 19 76 41 WNW 1000,4 7 1,8
10.12.2019 15:00:00 12,0 11,7 - - 52 28 89 48 SSW 998,0 4,5 1,4
10.12.2019 14:00:00 12,1 11,7 - - 55 30 83 45 SSW 999,4 7 0,2
10.12.2019 13:00:00 12,0 11,7 - - 54 29 80 43 SSW 1001,0 6 0,2
10.12.2019 12:00:00 11,9 11,6 - - 54 29 83 45 SSW 1002,8 2,1 0,4
10.12.2019 11:00:00 11,7 11,5 - - 52 28 78 42 SSW 1004,5 6 0,2
10.12.2019 10:00:00 11,5 11,2 - - 50 27 80 43 SSW 1006,5 5 0,0
10.12.2019 09:00:00 10,9 10,7 7,2 8,7 52 28 76 41 SSW 1007,4 4,6 1,2
10.12.2019 08:00:00 10,5 10,2 - - 52 28 80 43 SSW 1009,0 2,9 1,8
10.12.2019 07:00:00 10,1 9,7 - - 52 28 78 42 S 1010,8 4,6 0,6
10.12.2019 06:00:00 10,0 9,2 - - 54 29 74 40 S 1012,4 4,2 0,8
10.12.2019 05:00:00 9,9 8,7 - - 42 23 63 34 S 1014,9 6 0,2
10.12.2019 04:00:00 9,9 8,1 - - 42 23 61 33 SSW 1016,7 5 0,0
10.12.2019 03:00:00 10,2 7,0 - - 41 22 61 33 SSW 1017,9 17 0,0
10.12.2019 02:00:00 9,9 6,3 - - 39 21 55 30 SSW 1019,5 18 0,0
10.12.2019 01:00:00 9,8 5,9 - - 31 17 46 25 SSW 1020,7 21 0,0
10.12.2019 00:00:00 9,7 6,1 - - 31 17 46 25 SSW 1022,0 27 0,0
09.12.2019 23:00:00 9,2 5,4 - - 24 13 - - SSW 1022,7 35 0,0
09.12.2019 22:00:00 8,8 5,4 - - 15 8 - - SSW 1023,8 30 0,0
09.12.2019 21:00:00 8,4 5,4 - - 13 7 - - SW 1023,6 28 0,0
09.12.2019 20:00:00 7,1 4,9 - - 4 2 - - SW 1024,2 19 0,0
09.12.2019 19:00:00 7,2 5,1 - - 5 3 - - WSW 1024,5 19 0,0
09.12.2019 18:00:00 6,2 3,7 - - 11 6 - - WNW 1024,0 22 0,0
09.12.2019 17:00:00 6,8 3,4 - - 11 6 - - NW 1023,0 23 0,0
09.12.2019 16:00:00 7,7 3,5 - - 15 8 - - NW 1022,9 24 0,0
09.12.2019 15:00:00 8,7 3,3 - - 21 11 - - NW 1022,5 28 0,0
09.12.2019 14:00:00 9,2 4,1 - - 24 13 - - NW 1022,2 23 0,0
09.12.2019 13:00:00 9,5 4,0 - - 31 17 52 28 NW 1020,9 24 0,0
09.12.2019 12:00:00 9,5 4,3 - - 29 16 54 29 NW 1020,0 22 0,0
09.12.2019 11:00:00 9,2 4,1 - - 28 15 52 28 NW 1018,8 24 0,0
09.12.2019 10:00:00 8,8 4,1 - - 29 16 55 30 NW 1017,5 24 0,0
09.12.2019 09:00:00 8,4 4,2 7,7 8,7 35 19 59 32 NW 1015,5 28 0,0
09.12.2019 08:00:00 8,4 4,2 - - 35 19 65 35 NW 1013,1 29 0,0
09.12.2019 07:00:00 8,8 4,3 - - 41 22 76 41 NW 1010,3 30 0,0
09.12.2019 06:00:00 9,1 4,4 - - 44 24 80 43 NW 1008,1 28 0,0
09.12.2019 05:00:00 9,4 4,8 - - 46 25 76 41 NW 1005,4 26 0,0
09.12.2019 04:00:00 9,6 4,7 - - 55 30 91 49 NW 1002,8 27 0,0
09.12.2019 03:00:00 9,8 5,1 - - 54 29 96 52 NW 1000,1 23 0,0
09.12.2019 02:00:00 9,6 5,3 - - 55 30 93 50 WNW 997,2 19 0,0
09.12.2019 01:00:00 9,6 5,0 - - 52 28 80 43 WNW 995,6 16 0,0
09.12.2019 00:00:00 9,2 4,4 - - 42 23 78 42 WNW 995,3 23 0,0
08.12.2019 23:00:00 8,9 4,7 - - 41 22 74 40 WNW 994,4 21 0,0
08.12.2019 22:00:00 8,5 5,1 - - 41 22 83 45 WNW 993,2 24 0,0
08.12.2019 21:00:00 8,2 5,9 - - 44 24 96 52 WNW 990,7 22 2,0
08.12.2019 20:00:00 7,9 6,4 - - 34 18 70 38 WSW 991,2 6 0,6
08.12.2019 19:00:00 9,1 5,0 - - 46 25 78 42 W 993,7 15 0,2
08.12.2019 18:00:00 9,0 4,8 - - 44 24 72 39 W 995,2 14 0,0
08.12.2019 17:00:00 8,7 3,8 - - 46 25 76 41 W 996,5 21 0,0
08.12.2019 16:00:00 8,6 4,0 - - 46 25 83 45 W 997,1 19 0,0
08.12.2019 15:00:00 9,1 3,3 - - 57 31 83 45 W 997,5 20 0,0
08.12.2019 14:00:00 8,6 3,9 - - 55 30 81 44 W 998,6 24 0,0
08.12.2019 13:00:00 9,4 4,0 - - 54 29 78 42 W 999,3 20 0,2
08.12.2019 12:00:00 9,9 4,7 - - 46 25 80 43 W 999,8 20 0,0
08.12.2019 11:00:00 9,6 3,6 - - 52 28 80 43 W 1000,6 20 0,0
08.12.2019 10:00:00 9,8 3,4 - - 48 26 78 42 W 1000,9 22 0,0
08.12.2019 09:00:00 9,6 4,7 8,0 8,5 46 25 74 40 W 1001,0 24 0,0
08.12.2019 08:00:00 9,7 4,2 - - 42 23 68 37 W 1001,1 30 0,0
08.12.2019 07:00:00 9,8 4,2 - - 44 24 67 36 W 1001,3 24 0,0
08.12.2019 06:00:00 10,0 5,3 - - 41 22 68 37 W 1001,2 18 0,0
08.12.2019 05:00:00 10,2 5,5 - - 37 20 68 37 W 1000,9 19 0,0
08.12.2019 04:00:00 10,5 7,0 - - 44 24 70 38 W 1000,7 11 0,0

tt = temperature
td = dewpoint
tt -20cm = temperature -20cm
tt -100cm = temperature -100cm
ff = wind speed
fx = gusts
dd = wind direction
ppp = reduced air pressure
vv = visibility
rr = precipitation

Next stations